GW6270 Weather Reports


time (UTC)temp
C
wind
direction
speed
KPH
gust
KPH
rain 1hr
cm
rain 24hr
cm
rain mn
cm
humidity
%
barometer
mb
20260502233908 21 46 4.8 6.4 0.00 0.00 0.00 29 1016.2
20260502233403 21 45 9.7 17.7 0.00 0.00 0.00 29 1016.5
20260502232900 22 32 6.4 9.7 0.00 0.00 0.00 29 1016.4
20260502232357 21 84 1.6 6.4 0.00 0.00 0.00 28 1016.4
20260502231853 21 126 0.0 3.2 0.00 0.00 0.00 29 1016.2
20260502231351 21 10 1.6 4.8 0.00 0.00 0.00 28 1016.6
20260502230849 22 339 6.4 9.7 0.00 0.00 0.00 28 1016.6
20260502230347 22 20 3.2 6.4 0.00 0.00 0.00 28 1016.7
20260502225844 21 68 1.6 3.2 0.00 0.00 0.00 29 1016.7
20260502225340 21 49 3.2 4.8 0.00 0.00 0.00 29 1016.8
20260502224837 21 131 0.0 1.6 0.00 0.00 0.00 29 1017.0
20260502224333 21 70 1.6 6.4 0.00 0.00 0.00 29 1016.9
20260502223831 21 11 4.8 9.7 0.00 0.00 0.00 29 1016.8
20260502223329 21 340 6.4 11.3 0.00 0.00 0.00 29 1016.9
20260502222826 21 23 3.2 6.4 0.00 0.00 0.00 28 1016.9
20260502222323 22 37 3.2 12.9 0.00 0.00 0.00 28 1016.8
20260502221819 21 197 0.0 1.6 0.00 0.00 0.00 27 1017.0
20260502221315 22 46 3.2 9.7 0.00 0.00 0.00 27 1017.0
20260502220813 23 200 0.0 6.4 0.00 0.00 0.00 27 1017.2
20260502220308 23 197 1.6 3.2 0.00 0.00 0.00 26 1017.0
20260502215806 22 144 0.0 3.2 0.00 0.00 0.00 26 1017.0
20260502215304 22 40 4.8 6.4 0.00 0.00 0.00 27 1017.0
20260502214800 21 47 3.2 4.8 0.00 0.00 0.00 28 1017.4
20260502214256 22 12 6.4 9.7 0.00 0.00 0.00 28 1017.3
20260502213754 21 206 0.0 1.6 0.00 0.00 0.00 29 1017.2
20260502213251 20 154 1.6 4.8 0.00 0.00 0.00 29 1017.4
20260502212750 21 53 3.2 3.2 0.00 0.00 0.00 29 1017.5
20260502212247 20 100 1.6 4.8 0.00 0.00 0.00 30 1017.7
20260502211743 21 4 6.4 11.3 0.00 0.00 0.00 29 1017.7
20260502211240 21 49 8.0 11.3 0.00 0.00 0.00 29 1017.7
20260502210737 22 7 11.3 12.9 0.00 0.00 0.00 27 1017.7
20260502210234 22 54 1.6 4.8 0.00 0.00 0.00 27 1017.7
20260502205732 22 189 4.8 4.8 0.00 0.00 0.00 27 1017.9
20260502205227 21 184 4.8 6.4 0.00 0.00 0.00 28 1017.9
20260502204725 20 246 1.6 3.2 0.00 0.00 0.00 30 1018.0
20260502204222 20 357 3.2 6.4 0.00 0.00 0.00 30 1018.2
20260502203720 21 359 1.6 9.7 0.00 0.00 0.00 29 1018.0
20260502203218 20 111 1.6 1.6 0.00 0.00 0.00 30 1018.2
20260502202711 20 121 3.2 4.8 0.00 0.00 0.00 31 1018.2
20260502202210 21 64 3.2 9.7 0.00 0.00 0.00 30 1018.3
20260502201708 21 58 8.0 12.9 0.00 0.00 0.00 30 1018.2
20260502201204 21 36 3.2 6.4 0.00 0.00 0.00 30 1018.0
20260502200659 22 114 3.2 4.8 0.00 0.00 0.00 29 1018.4
20260502200156 21 189 1.6 4.8 0.00 0.00 0.00 30 1018.5
20260502195655 21 166 1.6 6.4 0.00 0.00 0.00 30 1018.5
20260502195151 21 162 3.2 6.4 0.00 0.00 0.00 29 1018.5
20260502194647 20 108 1.6 4.8 0.00 0.00 0.00 29 1018.5
20260502194144 21 193 4.8 6.4 0.00 0.00 0.00 29 1018.5
20260502193641 20 36 4.8 6.4 0.00 0.00 0.00 30 1018.5
20260502193138 21 192 3.2 4.8 0.00 0.00 0.00 28 1018.8
20260502192633 21 142 0.0 4.8 0.00 0.00 0.00 29 1018.8
20260502192131 20 110 1.6 3.2 0.00 0.00 0.00 30 1019.1
20260502191627 21 65 4.8 4.8 0.00 0.00 0.00 29 1019.1
20260502191125 20 137 3.2 4.8 0.00 0.00 0.00 29 1019.1
20260502190622 20 158 3.2 4.8 0.00 0.00 0.00 29 1018.9
20260502190120 20 118 3.2 9.7 0.00 0.00 0.00 28 1019.1
20260502185614 20 185 6.4 11.3 0.00 0.00 0.00 30 1019.3
20260502185111 20 9 8.0 14.5 0.00 0.00 0.00 30 1019.2
20260502184608 20 304 1.6 11.3 0.00 0.00 0.00 31 1019.3
20260502184103 20 56 1.6 9.7 0.00 0.00 0.00 31 1019.4
20260502183600 20 43 4.8 11.3 0.00 0.00 0.00 30 1019.5
20260502183056 19 117 1.6 11.3 0.00 0.00 0.00 32 1019.6
20260502182551 19 42 4.8 6.4 0.00 0.00 0.00 31 1019.7
20260502182047 20 66 8.0 9.7 0.00 0.00 0.00 32 1019.6
20260502181545 19 156 0.0 9.7 0.00 0.00 0.00 32 1019.6
20260502181044 19 43 12.9 14.5 0.00 0.00 0.00 32 1019.8
20260502180540 18 60 6.4 11.3 0.00 0.00 0.00 33 1019.7
20260502170459 17 184 0.0 3.2 0.00 0.00 0.00 34 1020.2
20260502163943 17 198 0.0 4.8 0.00 0.00 0.00 36 1020.4
20260502163439 16 87 0.0 3.2 0.00 0.00 0.00 37 1020.2
20260502162937 15 191 3.2 6.4 0.00 0.00 0.00 39 1020.2
20260502162433 15 200 1.6 9.7 0.00 0.00 0.00 38 1020.5
20260502161930 15 185 1.6 3.2 0.00 0.00 0.00 38 1020.5
20260502161426 15 195 6.4 9.7 0.00 0.00 0.00 38 1020.5
20260502160925 16 207 1.6 3.2 0.00 0.00 0.00 36 1020.4
20260502160422 15 136 1.6 4.8 0.00 0.00 0.00 37 1020.5
20260502151855 14 119 1.6 4.8 0.00 0.00 0.00 40 1020.6
20260502151351 13 143 1.6 3.2 0.00 0.00 0.00 41 1020.2
20260502150849 13 186 3.2 4.8 0.00 0.00 0.00 42 1020.4
20260502150345 13 175 3.2 6.4 0.00 0.00 0.00 42 1020.4
20260502130733 8 206 1.6 6.4 0.00 0.00 0.00 55 1019.3
20260502130231 8 241 1.6 3.2 0.00 0.00 0.00 56 1019.4
20260502123717 7 211 1.6 3.2 0.00 0.00 0.00 56 1018.6
20260502123214 7 184 0.0 1.6 0.00 0.00 0.00 55 1018.7
20260502122710 7 215 3.2 4.8 0.00 0.00 0.00 55 1018.6
20260502122206 7 199 1.6 9.7 0.00 0.00 0.00 55 1018.5
20260502121705 7 204 3.2 9.7 0.00 0.00 0.00 55 1018.5
20260502121203 7 220 3.2 9.7 0.00 0.00 0.00 54 1018.3
20260502120659 7 200 6.4 9.7 0.00 0.00 0.00 54 1018.4
20260502120155 7 212 4.8 9.7 0.00 0.00 0.00 53 1018.2
20260502115653 7 202 1.6 6.4 0.00 0.00 0.00 52 1018.1
20260502115149 8 238 3.2 4.8 0.00 0.00 0.00 51 1018.0
20260502114646 8 223 3.2 6.4 0.00 0.00 0.00 51 1018.2
20260502114143 8 212 8.0 9.7 0.00 0.00 0.00 50 1018.2
20260502113640 8 219 3.2 6.4 0.00 0.00 0.00 50 1018.1
20260502113138 8 223 3.2 9.7 0.00 0.00 0.00 50 1018.1
20260502112636 8 226 6.4 11.3 0.00 0.00 0.00 49 1018.0
20260502112133 8 232 3.2 9.7 0.00 0.00 0.00 50 1018.0
20260502111631 8 215 3.2 6.4 0.00 0.00 0.00 50 1018.0
20260502111128 8 224 3.2 6.4 0.00 0.00 0.00 49 1018.0
20260502110626 8 205 4.8 9.7 0.00 0.00 0.00 49 1017.8
20260502110123 8 228 3.2 6.4 0.00 0.00 0.00 49 1017.8
20260502105620 8 219 3.2 4.8 0.00 0.00 0.00 49 1017.7
20260502105117 8 216 3.2 6.4 0.00 0.00 0.00 49 1017.8
20260502104614 8 227 3.2 3.2 0.00 0.00 0.00 50 1017.7
20260502104112 8 214 1.6 4.8 0.00 0.00 0.00 50 1017.3
20260502103609 8 240 4.8 4.8 0.00 0.00 0.00 50 1017.8
20260502103108 8 275 3.2 3.2 0.00 0.00 0.00 50 1017.4
20260502102603 8 199 0.0 1.6 0.00 0.00 0.00 50 1017.3
20260502102100 8 120 0.0 1.6 0.00 0.00 0.00 49 1017.2
20260502101558 8 180 0.0 1.6 0.00 0.00 0.00 49 1017.0
20260502101057 8 199 0.0 1.6 0.00 0.00 0.00 48 1016.9
20260502100554 9 176 0.0 1.6 0.00 0.00 0.00 48 1016.8
20260502091529 8 224 3.2 4.8 0.00 0.00 0.00 51 1016.7
20260502091027 8 222 3.2 6.4 0.00 0.00 0.00 51 1016.7
20260502090523 8 196 1.6 4.8 0.00 0.00 0.00 51 1016.5
20260502071418 10 200 0.0 0.0 0.00 0.00 0.00 48 1016.4
20260502070916 11 200 0.0 1.6 0.00 0.00 0.00 48 1016.4
20260502070414 11 199 0.0 0.0 0.00 0.00 0.00 46 1016.2
20260502065912 12 199 0.0 0.0 0.00 0.00 0.00 44 1016.2
20260502065410 12 200 1.6 1.6 0.00 0.00 0.00 43 1016.0
20260502064908 12 190 1.6 1.6 0.00 0.00 0.00 42 1016.1
20260502064406 12 201 3.2 3.2 0.00 0.00 0.00 42 1015.9
20260502063902 12 223 3.2 3.2 0.00 0.00 0.00 42 1016.1
20260502063400 12 205 3.2 4.8 0.00 0.00 0.00 43 1016.0
20260502062858 12 195 0.0 3.2 0.00 0.00 0.00 43 1015.8
20260502062355 12 195 0.0 1.6 0.00 0.00 0.00 43 1016.0
20260502061854 12 198 1.6 1.6 0.00 0.00 0.00 42 1015.8
20260502061351 12 209 3.2 9.7 0.00 0.00 0.00 43 1015.8
20260502060846 11 197 3.2 3.2 0.00 0.00 0.00 45 1015.8
20260502060342 11 137 0.0 0.0 0.00 0.00 0.00 45 1015.9
20260502055839 11 136 0.0 0.0 0.00 0.00 0.00 45 1015.7
20260502055337 11 136 0.0 0.0 0.00 0.00 0.00 44 1015.8
20260502054837 11 136 0.0 1.6 0.00 0.00 0.00 43 1015.6
20260502054334 12 136 0.0 1.6 0.00 0.00 0.00 42 1015.8
20260502053831 12 135 0.0 1.6 0.00 0.00 0.00 42 1015.6
20260502053328 13 189 0.0 0.0 0.00 0.00 0.00 39 1015.4
20260502052826 13 189 0.0 0.0 0.00 0.00 0.00 39 1015.7
20260502052324 13 208 0.0 1.6 0.00 0.00 0.00 39 1015.5
20260502051821 13 193 1.6 3.2 0.00 0.00 0.00 40 1015.5
20260502051320 13 221 3.2 3.2 0.00 0.00 0.00 41 1015.6
20260502050816 12 194 3.2 4.8 0.00 0.00 0.00 41 1015.3
20260502050312 13 202 0.0 1.6 0.00 0.00 0.00 41 1015.6
20260502045810 13 203 3.2 4.8 0.00 0.00 0.00 40 1015.4
20260502045306 14 209 4.8 6.4 0.00 0.00 0.00 39 1015.6
20260502044803 13 198 4.8 4.8 0.00 0.00 0.00 39 1015.7
20260502044259 13 237 3.2 3.2 0.00 0.00 0.00 40 1015.7
20260502043757 13 187 0.0 0.0 0.00 0.00 0.00 44 1015.4
20260502043254 13 114 0.0 1.6 0.00 0.00 0.00 43 1015.3
20260502042753 13 113 0.0 0.0 0.00 0.00 0.00 43 1015.4
20260502042251 13 113 0.0 0.0 0.00 0.00 0.00 42 1015.3
20260502041748 13 113 0.0 0.0 0.00 0.00 0.00 43 1015.3
20260502041246 13 113 0.0 0.0 0.00 0.00 0.00 42 1015.1
20260502040742 13 113 0.0 0.0 0.00 0.00 0.00 41 1014.8
20260502040239 13 113 0.0 0.0 0.00 0.00 0.00 41 1014.9
20260502035735 14 113 0.0 0.0 0.00 0.00 0.00 40 1014.9
20260502035232 14 112 0.0 1.6 0.00 0.00 0.00 40 1015.1
20260502034730 14 113 0.0 1.6 0.00 0.00 0.00 40 1015.1
20260502034228 15 113 0.0 1.6 0.00 0.00 0.00 39 1015.1
20260502033725 15 113 0.0 0.0 0.00 0.00 0.00 39 1015.1
20260502033223 15 91 0.0 0.0 0.00 0.00 0.00 40 1014.9
20260502032720 15 133 0.0 1.6 0.00 0.00 0.00 41 1014.8
20260502032215 16 115 1.6 1.6 0.00 0.00 0.00 37 1014.8
20260502031714 16 91 1.6 1.6 0.00 0.00 0.00 36 1014.8
20260502031211 16 159 0.0 0.0 0.00 0.00 0.00 35 1014.9
20260502030710 16 159 0.0 0.0 0.00 0.00 0.00 34 1014.7
20260502030208 17 158 0.0 1.6 0.00 0.00 0.00 34 1014.6
20260502025704 17 158 0.0 0.0 0.00 0.00 0.00 32 1014.7
20260502025202 18 157 0.0 0.0 0.00 0.00 0.00 31 1014.5
20260502024700 18 157 0.0 0.0 0.00 0.00 0.00 31 1014.5
20260502024158 20 199 0.0 0.0 0.00 0.00 0.00 30 1014.5
20260502023655 20 200 0.0 0.0 0.00 0.00 0.00 28 1014.6
20260502023153 21 201 0.0 1.6 0.00 0.00 0.00 27 1014.5
20260502022649 22 185 0.0 1.6 0.00 0.00 0.00 25 1014.5
20260502022146 22 193 3.2 3.2 0.00 0.00 0.00 23 1014.4
20260502021644 22 188 3.2 4.8 0.00 0.00 0.00 22 1014.3
20260502021141 22 187 3.2 3.2 0.00 0.00 0.00 22 1014.3
20260502020638 23 185 1.6 3.2 0.00 0.00 0.00 22 1014.4
20260502020135 23 187 3.2 3.2 0.00 0.00 0.00 21 1014.4
20260502015633 23 196 0.0 0.0 0.00 0.00 0.00 21 1014.4
20260502015129 23 196 1.6 1.6 0.00 0.00 0.00 18 1014.3
20260502014626 24 197 1.6 1.6 0.00 0.00 0.00 19 1014.2
20260502014123 24 190 1.6 3.2 0.00 0.00 0.00 18 1014.4
20260502013619 24 188 0.0 3.2 0.00 0.00 0.00 18 1014.3
20260502013115 25 195 0.0 1.6 0.00 0.00 0.00 18 1014.2
20260502012613 25 204 1.6 1.6 0.00 0.00 0.00 17 1014.3
20260502012111 25 221 1.6 3.2 0.00 0.00 0.00 18 1014.3
20260502011607 26 199 1.6 1.6 0.00 0.00 0.00 18 1014.5
20260502011103 25 212 0.0 0.0 0.00 0.00 0.00 17 1014.5
20260502010600 25 222 1.6 1.6 0.00 0.00 0.00 18 1014.3
20260502010056 25 258 3.2 3.2 0.00 0.00 0.00 18 1014.5
20260502005555 25 227 1.6 4.8 0.00 0.00 0.00 18 1014.5
20260502005052 25 224 1.6 4.8 0.00 0.00 0.00 18 1014.5
20260502004547 25 282 6.4 9.7 0.00 0.00 0.00 17 1014.5
20260502004044 26 263 6.4 9.7 0.00 0.00 0.00 17 1014.4
20260502003543 26 224 1.6 6.4 0.00 0.00 0.00 17 1014.6
20260502003039 26 222 1.6 3.2 0.00 0.00 0.00 16 1014.6
20260502002536 26 286 4.8 4.8 0.00 0.00 0.00 16 1014.6
20260502002033 26 240 4.8 4.8 0.00 0.00 0.00 16 1014.7
20260502001531 26 242 1.6 3.2 0.00 0.00 0.00 16 1014.5
20260502001027 26 260 3.2 6.4 0.00 0.00 0.00 17 1014.6
20260502000526 26 224 3.2 3.2 0.00 0.00 0.00 17 1014.7
20260502000023 25 260 3.2 6.4 0.00 0.00 0.00 17 1014.9
20260501235518 26 216 9.7 11.3 0.00 0.00 0.00 17 1014.7
20260501235014 26 222 3.2 9.7 0.00 0.00 0.00 17 1014.8
20260501234510 26 195 9.7 14.5 0.00 0.00 0.00 16 1014.6